Regional Weather Roundup
Issued by NWS

Home | Current Version | Previous Version | Graphics & Text | Print | Product List | Glossary On
Versions: 1 2 3 4 5 6 7 8 9 10 11 12 13 14 15 16 17 18 19 20 21 22 23 24 25 26 27 28 29 30 31 32 33 34 35 36 37 38 39 40 41 42 43 44 45 46 47 48 49 50
000
ASUS45 KPSR 221710
RWRAZ

ARIZONA HOURLY REGIONAL WEATHER ROUNDUP
NATIONAL WEATHER SERVICE PHOENIX AZ
1000 AM MST SUN JAN 22 2017

NOTE: FAIR INDICATES FEW OR NO CLOUDS BELOW 12,000 FEET WITH NO
SIGNIFICANT WEATHER AND/OR OBSTRUCTIONS TO VISIBILITY.

AZZ001>003-036-221800-
NORTHWEST ARIZONA

CITY           SKY/WX    TMP DP  RH WIND       PRES   REMARKS
BULLHEAD CITY  CLOUDY    52  43  71 SW10      30.14R
KINGMAN        CLOUDY    44  23  43 SE12      30.12R
$$

AZZ004>008-015-016-018-221800-
NORTH CENTRAL ARIZONA

CITY           SKY/WX    TMP DP  RH WIND       PRES   REMARKS
GRAND CANYON   LGT SNOW  26  25  96 S6        30.13S VSB 1   WCI  19
WILLIAMS       PTSUNNY   28  25  86 S13       30.14R WCI  18
PRESCOTT       CLOUDY    33  32  96 SE10      30.17R WCI  25
FLAGSTAFF      LGT SNOW  26  25  96 SW10      30.14F FOG     WCI  16
PAYSON         MIX PCPN  34  30  86 CALM      30.24S
PAGE           CLOUDY    37  26  64 NW3       30.13R
$$

AZZ009>014-017-221800-
NORTHEAST ARIZONA

CITY           SKY/WX    TMP DP  RH WIND       PRES   REMARKS
WINSLOW        CLOUDY    31  26  82 E6        30.23R WCI  25
SAINT JOHNS    MOSUNNY   34  21  59 CALM      30.20R
SHOW LOW       MOSUNNY   28  21  74 S12       30.20S WCI  18
$$

AZZ023-221800-
GREATER PHOENIX AREA

CITY           SKY/WX    TMP DP  RH WIND       PRES   REMARKS
PHOENIX        PTSUNNY   50  39  66 E8        30.22R
BUCKEYE        PTSUNNY   50  41  71 E16       30.21R
GLENDALE       PTSUNNY   50  43  76 CALM      30.24R
LUKE AFB       MOSUNNY   49  39  68 CALM      30.22R
DEER VALLEY    MOSUNNY   50  39  66 E6        30.21R
SCOTTSDALE     MOSUNNY   52  36  54 E6        30.22R
MESA-GATEWAY   PTSUNNY   50  43  76 SE7       30.23R
CHANDLER       SUNNY     52  41  66 E8        30.22R
$$

AZZ027-028-221800-
SOUTHWEST MARICOPA COUNTY AND PINAL COUNTY

CITY           SKY/WX    TMP DP  RH WIND       PRES   REMARKS
CASA GRANDE    MOSUNNY   49  39  68 E7        30.24R
GILA BEND      CLOUDY    51  44  74 N6        30.20R
$$

AZZ503-504-507>509-221800-
SOUTHEAST ARIZONA

CITY           SKY/WX    TMP DP  RH WIND       PRES   REMARKS
TUCSON         SUNNY     47  33  58 S7        30.25R
DAVIS-MONTHAN  SUNNY     49  33  54 SE9       30.24R
RYAN FIELD     SUNNY     50  36  57 E9        30.25R
NOGALES        SUNNY     46  32  58 S3        30.22F
SIERRA VISTA   SUNNY     45  26  48 E6        30.24S
DOUGLAS        SUNNY     40  30  67 S3        30.26S
SAFFORD        PTSUNNY   43  34  70 E3        30.25R
$$

AZZ020-021-025-026-031-221800-
SOUTHWEST ARIZONA

CITY           SKY/WX    TMP DP  RH WIND       PRES   REMARKS
YUMA           PTSUNNY   60  43  53 SE15      30.15R
$$

CAZ031-033-041-043-047-048-061-221800-
SOUTHERN CALIFORNIA

CITY           SKY/WX    TMP DP  RH WIND       PRES   REMARKS
DOWNTOWN L.A.  RAIN      52  47  83 E8        30.11R
L.A. AIRPORT   LGT RAIN  51  48  89 E14       30.10S FOG
SAN DIEGO      CLOUDY    57  42  57 SE8       30.16R
BURBANK        LGT RAIN  49  43  80 SE14      30.08R
ONTARIO        LGT RAIN  49  46  90 N5        30.14R
RIVERSIDE      LGT RAIN  49  49 100 CALM      30.14R
PALM SPRINGS   CLOUDY    52  46  80 SE8       30.15R
EL CENTRO NAS  CLOUDY    55  42  61 CALM      30.16R
IMPERIAL       CLOUDY    55  42  61 SE6       30.14R
NEEDLES        CLOUDY    54  41  61 SE7       30.14R
$$

NVZ020-UTZ003-221800-
SOUTHERN NEVADA-UTAH

CITY           SKY/WX    TMP DP  RH WIND       PRES   REMARKS
LAS VEGAS      LGT RAIN  45  38  76 S5        30.07R
SALT LAKE CITY CLOUDY    31  23  72 SE15      29.95S WCI  20
$$

NMZ009-TXZ055-221800-
NEW MEXICO-WEST TEXAS

CITY           SKY/WX    TMP DP  RH WIND       PRES   REMARKS
ALBUQUERQUE    MOSUNNY   35  22  58 CALM      30.20R
EL PASO        SUNNY     44  25  47 W18G25    30.19S
$$


........................KEY........................
SKY/WX - SKY CONDITION/WEATHER
TMP    - TEMPERATURE IN FAHRENHEIT
DP     - DEW POINT IN FAHRENHEIT
RH     - RELATIVE HUMIDITY IN PERCENT
WIND   - DIRECTION AND SPEED IN MILES PER HOUR (MPH)
VRB    - VARIABLE WIND DIRECTION
PRES   - MEAN SEA LEVEL PRESSURE IN INCHES OF MERCURY
         F - FALLING PRESSURE   R - RISING PRESSURE
         S - STEADY PRESSURE
VSB    - VISIBILITY IN MILES
HX     - HEAT INDEX IN FAHRENHEIT
WCI    - WIND CHILL INDEX IN FAHRENHEIT
TC     - TEMPERATURE IN CELSIUS WHICH IS ALSO KNOWN AS
         TEMPERATURE IN CENTIGRADE
AFB    - AIR FORCE BASE
         LUKE AFB IS LUKE AIR FORCE BASE
         DAVIS-MONTHAN IS DAVIS-MONTHAN AIR FORCE BASE
NAS    - NAVAL AIR STATION
         EL CENTRO NAS IS EL CENTRO NAVAL AIR STATION
N/A    - NOT AVAILABLE




USA.gov is the U.S. government's official web portal to all federal, state and local government web resources and services.